Starlink 5880

operational
NORAD ID: 57220 Int'l Des: 2023-094 Owner: SPXS Country: US Constellation: starlink
LEOCIRCULAR

About Starlink 5880

Description loading...

Live Position

Loading 3D Globe...

Upcoming Passes

Altitude History

Altitude vs Time

uPlot chart will show altitude changes over time

Two-Line Element Set

1 57220U 23094C 25258.02522532 .00000745 00000-0 70197-4 0 9991
2 57220 43.0033 265.0001 0001227 267.5559 92.5143 15.02532753120691
Epoch: Sep 15, 2025 • Age: 32 hours

Current Status

Altitude 558.4 km
Velocity 7.58 km/s
Sub-Earth Point 5.42°N, 139.78°E
Launch Date Jul 7, 2023
Age 2.1 years
Type internet

Technical Details

Classification Payload
Mass 305.00 kg
Dry Mass 290.00 kg
Total Mass 305.00 kg
Length 0.20 m
Diameter 2.80 m
Span 9.00 m
Shape Box + pan
Manufacturer SPXS
Bus Type Starlink
Phase Status In Orbit
Owner/State SPXS/US

Large Constellations

Loading constellations...